Flag for Germany Weather past 2 weeks in Eschweiler, North Rhine-Westphalia, Germany

Now
84 °F

Sunny.


Feels Like: 87 °F
Forecast: 66 / 89 °F
Wind: 12 mph from North

Location: Geilenkirchen Airport

Current Time: Jul 2, 2015 at 8:21:39 PM

Latest Report: Jul 2, 2015 at 7:50 PM


Visibility: 10 mi

Pressure: 30.07 "Hg

Humidity: 55%

Dew point: 66 °F

Location of EschweilerLocation

Historic Weather in Eschweiler — Graph

°F

Eschweiler temperature yesterday

Maximum temperature yesterday: 95 °F (at 4:50 PM)
Minimum temperature yesterday: 64 °F (at 5:50 AM)
Average temperature yesterday: 80 °F

Past Weeks' High & Low Weather Summary

 TemperatureHumidityPressure
High102 °F (Jul 2, 4:50 PM)94% (Jun 18, 6:50 AM)30.21 "Hg (Jun 18, 6:50 AM)
Low50 °F (Jun 22, 8:50 PM)26% (Jul 2, 4:50 PM)29.71 "Hg (Jun 22, 7:50 PM)
Average66 °F64%30.07 "Hg
* Reported Jun 17 6:50 PM — Jul 2 6:50 PM, Eschweiler, Weather by CustomWeather, © 2015

Note: Actual official high and low records may vary slightly from our data, if they occured in-between our weather recording intervals... More about our weather records

Advertising

Eschweiler weather history for previous 24 hours

 ConditionsComfort  
Time TempWeatherWind HumidityBarometerVisibility
6:50 PM
Thu, Jul 2
88 °FSunny.18 mph55%30.07 "Hg10 mi
5:50 PM100 °FSunny.3 mph27%30.01 "Hg10 mi
4:50 PM102 °FSunny.3 mph26%30.01 "Hg10 mi
3:50 PM100 °FSunny.5 mph27%30.04 "Hg10 mi
2:50 PM99 °FSunny.9 mph35%30.01 "Hg10 mi
1:50 PM97 °FSunny.8 mph37%30.04 "Hg10 mi
12:50 PM95 °FSunny.8 mph39%30.04 "Hg10 mi
11:50 AM91 °FSunny.10 mph44%30.04 "Hg10 mi
10:50 AM90 °FSunny.2 mph41%30.07 "Hg10 mi
9:50 AM86 °FSunny.5 mph46%30.07 "Hg10 mi
8:50 AM81 °FSunny.3 mph58%30.07 "Hg10 mi
7:50 AM77 °FSunny.2 mph57%30.07 "Hg10 mi
6:50 AM73 °FSunny.7 mph61%30.04 "Hg10 mi
5:50 AM73 °FClear.7 mph57%30.04 "Hg10 mi
4:50 AM73 °FClear.5 mph57%30.04 "Hg10 mi
3:50 AM75 °FClear.7 mph54%30.01 "Hg10 mi
2:50 AM75 °FClear.5 mph54%30.04 "Hg10 mi
1:50 AM77 °FClear.8 mph51%30.04 "Hg10 mi
12:50 AM79 °FClear.10 mph48%30.04 "Hg10 mi
11:50 PM
Wed, Jul 1
81 °FClear.10 mph45%30.04 "Hg10 mi
10:50 PM82 °FSunny.9 mph45%30.01 "Hg10 mi
9:50 PM86 °FSunny.10 mph40%30.01 "Hg10 mi
8:50 PM90 °FSunny.14 mph36%29.98 "Hg10 mi
Weather by CustomWeather, © 2015

See weather overviewHow to use our weather pages